Weather History for Riverside March, CA

Change the Weather History Date:

Sunday, April 20, 2014

  Actual Average Record
Temperature  
Mean Temperature 66 °F -  
Max Temperature 84 °F 73 °F 97 °F (2009)
Min Temperature 48 °F 45 °F 42 °F (2001)
Cooling Degree Days 1    
Growing Degree Days 16 (Base 50)    
Moisture  
Dew Point 49 °F    
Average Humidity 58    
Maximum Humidity 89    
Minimum Humidity 27    
Precipitation  
Precipitation 0.00 in - - ()
Sea Level Pressure  
Sea Level Pressure 30.02 in    
Wind  
Wind Speed 4 mph (NW)    
Max Wind Speed 15 mph    
Max Gust Speed -    
Visibility 10 miles    
Events      
Averages and records for this station are not official NWS values.
T = Trace of Precipitation, MM = Missing Value Source: NWS Daily Summary

Daily Weather History Graph

Daily Weather History Graph

Search for Another Location

Airport:

Trip Planner

Search our weather history database for the weather conditions in past years. The results will help you decide how hot, cold, wet, or windy it might be!

Date:

Astronomy

Apr. 20, 2014 Rise Set
Actual Time 6:12 AM PDT 7:24 PM PDT
Civil Twilight 5:46 AM PDT 7:50 PM PDT
Nautical Twilight 5:15 AM PDT 8:21 PM PDT
Astronomical Twilight 4:43 AM PDT 8:53 PM PDT
Moon 12:02 AM PDT (4/20) 10:42 AM PDT (4/20)
Length of Visible Light 14h 04m
Length of Day
13h 12m
Waning Gibbous, 67% of the Moon is Illuminated
Apr 20
Waning Gibbous
Apr 22
Last Quarter
Apr 28
New
May 6
First Quarter
May 14
Full

Hourly Weather History & Observations

Time (PDT) Temp. Dew Point Humidity Pressure Visibility Wind Dir Wind Speed Gust Speed Precip Events Conditions
12:58 AM 52.9 °F 48.9 °F 86% 30.04 in 10.0 mi WNW 2.3 mph - N/A   Clear
1:58 AM 53.1 °F 47.8 °F 82% 30.03 in 10.0 mi Calm Calm - N/A   Clear
2:58 AM 53.1 °F 48.6 °F 85% 30.02 in 10.0 mi Calm Calm - N/A   Clear
3:58 AM 50.2 °F 47.1 °F 89% 30.02 in 10.0 mi Calm Calm - N/A   Clear
4:58 AM 49.3 °F 45.3 °F 86% 30.02 in 10.0 mi Calm Calm - N/A   Clear
5:58 AM 48.9 °F 44.4 °F 84% 30.03 in 10.0 mi NNW 1.2 mph - N/A   Clear
6:58 AM 51.3 °F 46.2 °F 83% 30.05 in 10.0 mi Calm Calm - N/A   Clear
7:58 AM 58.3 °F 51.1 °F 77% 30.05 in 10.0 mi NE 1.2 mph - N/A   Clear
8:58 AM 63.1 °F 52.5 °F 68% 30.04 in 10.0 mi Variable 1.2 mph - N/A   Clear
9:58 AM 69.6 °F 50.5 °F 51% 30.04 in 10.0 mi Variable 2.3 mph - N/A   Partly Cloudy
10:58 AM 75.2 °F 50.2 °F 41% 30.04 in 10.0 mi Variable 3.5 mph - N/A   Partly Cloudy
11:58 AM 77.4 °F 52.3 °F 42% 30.02 in 10.0 mi NW 9.2 mph - N/A   Partly Cloudy
12:58 PM 79.5 °F 48.7 °F 34% 30.01 in 10.0 mi NW 9.2 mph - N/A   Clear
1:58 PM 82.9 °F 45.5 °F 27% 30.01 in 10.0 mi WNW 11.5 mph - N/A   Partly Cloudy
2:58 PM 84.0 °F 49.8 °F 30% 29.98 in 10.0 mi NW 15.0 mph - N/A   Clear
3:49 PM 84.2 °F 50.0 °F 30% 30.00 in 10.0 mi West 12.7 mph - N/A   Clear
3:58 PM 83.7 °F 51.3 °F 32% 29.97 in 10.0 mi WNW 12.7 mph - N/A   Clear
4:58 PM 82.0 °F 49.1 °F 32% 29.98 in 10.0 mi NW 13.8 mph - N/A   Clear
5:58 PM 78.4 °F 49.1 °F 36% 29.99 in 10.0 mi NW 15.0 mph - N/A   Clear
6:58 PM 74.8 °F 50.2 °F 42% 30.00 in 10.0 mi NW 8.1 mph - N/A   Clear
7:58 PM 69.6 °F 52.7 °F 55% 30.01 in 10.0 mi WNW 6.9 mph - N/A   Clear
8:58 PM 66.6 °F 52.5 °F 61% 30.04 in 10.0 mi WNW 5.8 mph - N/A   Clear
9:58 PM 64.0 °F 51.4 °F 64% 30.04 in 10.0 mi North 2.3 mph - N/A   Clear
10:58 PM 63.5 °F 52.2 °F 67% 30.04 in 10.0 mi West 3.5 mph - N/A   Clear
11:58 PM 58.6 °F 49.5 °F 72% 30.04 in 10.0 mi Calm Calm - N/A   Clear